Theta_e
335 333 335 334 333 333 334 331 331 333 331 331 333 331 333 335 335 334 335 336 335 336 336 335 335 334 335 335 336 335 336 336 336 335 334 332 332 332 330 329 328 327 326 326 326 328 328 328 328 328 328 328 328 328 328 328 328 328 328 328 328 328 328 328 328 327 327 327 328 328 327 327 328 330 331 331 331 331 331 331 331 330 330 327 322
338 336 336 335 335 334 334 333 332 333 332 331 332 333 335 336 336 336 336 336 335 336 335 335 335 335 335 335 335 335 336 336 336 335 333 332 332 332 330 329 328 327 326 325 326 327 328 328 328 328 328 328 328 328 328 327 326 327 327 327 327 327 327 326 327 328 328 328 328 328 327 327 327 329 330 330 330 331 331 331 331 330 330 329 326
338 338 338 337 336 334 333 332 332 334 334 333 334 335 335 335 337 338 337 336 336 335 334 335 334 334 335 335 335 335 336 336 336 334 333 332 332 331 330 328 327 326 324 323 324 326 327 328 328 328 327 327 327 326 326 325 325 325 325 324 323 323 323 323 324 326 327 327 327 327 327 327 327 328 329 329 330 330 330 330 331 331 331 330 329
339 339 338 336 333 333 333 332 332 334 334 334 335 334 332 334 337 337 336 336 336 335 334 334 334 334 335 336 336 336 336 336 335 334 333 332 331 330 330 328 326 324 322 321 323 324 326 327 326 326 325 324 323 322 322 321 321 320 320 318 317 317 319 320 321 323 324 324 325 325 326 326 326 327 327 328 328 328 329 329 330 331 331 331 330
339 338 336 334 333 334 334 333 333 333 332 332 334 332 331 334 336 336 335 335 336 334 333 333 334 334 335 336 336 335 335 334 333 332 332 332 331 330 329 328 325 323 322 320 321 323 324 323 321 319 316 315 313 312 312 311 310 310 309 308 307 309 310 313 315 317 318 320 321 323 323 323 324 325 325 326 326 326 327 328 329 330 331 331 331
337 334 332 333 334 333 332 333 334 332 331 331 334 334 334 334 334 335 335 334 334 332 332 333 334 335 336 336 335 334 332 331 331 330 330 330 330 329 329 329 327 325 323 321 321 320 318 314 310 307 305 304 303 303 302 302 302 302 301 301 301 302 303 304 306 307 308 311 314 317 319 320 321 322 323 323 323 324 324 325 327 328 329 330 331
335 333 331 330 331 330 330 332 332 332 331 332 332 333 335 333 331 335 335 333 333 332 332 333 334 335 335 335 333 332 331 330 329 328 328 327 327 327 328 328 328 327 326 324 321 315 308 304 302 302 302 302 301 301 301 301 301 301 300 300 301 300 300 300 301 301 301 302 304 307 310 313 315 318 319 319 319 319 320 322 323 325 327 328 330
334 333 331 330 331 331 331 332 332 331 330 332 331 330 333 330 331 335 334 332 333 332 333 333 333 334 333 332 331 331 330 328 327 326 326 326 325 326 327 327 326 324 321 318 312 306 302 302 302 302 302 301 301 301 301 301 301 301 300 300 300 300 300 300 300 300 300 300 300 300 301 303 305 308 311 314 315 315 317 319 320 321 323 325 328
334 331 329 330 331 332 331 332 332 330 330 332 329 329 330 327 330 334 332 333 333 332 333 332 332 333 332 331 331 330 329 327 326 324 323 324 326 326 327 325 321 314 309 305 303 301 301 302 301 302 302 301 301 301 301 301 300 300 300 300 300 300 300 300 300 300 300 300 300 300 299 299 299 300 302 305 308 310 313 315 317 318 319 320 324
332 330 330 330 330 332 332 332 331 330 330 330 327 329 329 326 331 334 331 332 333 333 333 332 332 333 332 331 330 329 327 325 324 323 322 324 326 326 324 318 311 304 302 301 301 301 301 301 301 301 301 301 301 301 301 300 300 300 299 299 299 299 299 299 299 299 299 300 299 299 299 299 299 299 298 299 301 302 306 310 312 315 316 316 318
332 331 330 330 331 332 332 331 330 329 328 327 327 329 328 328 333 334 332 331 330 331 333 333 333 333 331 329 327 326 324 324 322 322 323 325 325 321 315 308 303 302 302 302 301 301 301 301 301 300 300 300 300 300 300 300 299 299 299 299 299 299 299 299 299 299 299 299 299 299 299 299 299 299 299 299 299 298 300 303 305 307 311 312 314
331 331 329 329 332 332 332 331 329 329 328 327 327 327 329 332 333 332 332 333 330 328 331 333 333 332 329 327 326 325 324 323 323 323 323 320 315 309 304 301 301 302 302 302 301 301 301 300 300 300 299 300 299 299 300 300 299 299 299 299 299 299 299 299 299 299 299 299 299 299 299 299 299 299 299 299 299 299 299 299 299 300 303 307 310
332 332 330 330 331 331 332 330 329 330 330 328 328 329 331 333 332 331 330 331 328 324 329 334 333 332 330 328 328 327 325 324 323 321 315 308 304 302 301 301 301 301 301 301 301 300 300 300 300 300 299 300 299 299 300 300 298 298 299 298 299 299 298 299 299 299 299 299 299 299 299 299 299 299 300 301 300 300 300 299 299 298 298 300 304
333 334 332 331 331 331 331 330 330 331 330 330 330 330 331 331 333 332 329 326 321 320 327 333 333 332 332 330 329 328 327 326 324 319 309 301 301 301 301 301 301 301 301 300 300 300 300 300 299 299 299 299 298 298 299 300 299 298 298 298 298 298 298 298 299 299 299 299 299 299 299 299 299 299 300 301 301 302 303 302 300 300 299 298 299
334 334 333 331 331 331 331 331 331 331 331 331 330 330 329 328 330 331 331 326 318 315 321 329 332 333 332 331 330 328 326 326 325 322 312 303 302 302 300 301 301 300 300 300 300 300 300 299 299 299 299 298 298 298 298 299 299 298 298 298 299 299 299 299 299 299 299 299 300 300 299 300 300 300 300 300 301 305 305 303 303 303 301 300 299
334 334 333 332 331 330 332 333 333 332 332 331 329 327 326 324 327 330 332 329 325 318 316 324 332 333 332 332 331 329 326 325 324 321 315 310 309 305 301 300 300 300 300 300 299 299 299 299 299 299 299 298 298 298 298 299 299 299 299 299 299 299 299 299 299 299 299 299 300 300 300 300 300 300 300 300 302 305 305 304 304 305 304 303 301
334 334 333 333 331 331 332 333 332 331 331 329 327 325 322 321 325 330 330 329 329 323 315 321 330 330 332 332 331 330 328 325 322 319 316 316 316 310 302 300 300 300 300 299 299 299 299 299 299 300 300 300 299 299 299 300 300 300 300 300 299 299 300 300 300 300 300 300 300 300 300 301 301 300 301 303 304 305 305 305 305 305 305 305 304
335 334 334 333 333 332 332 332 331 331 330 328 326 324 321 318 320 326 329 328 327 320 311 313 317 319 326 329 328 328 327 324 321 319 316 316 317 314 306 301 300 300 300 300 300 300 300 300 301 301 302 302 301 300 300 300 300 300 300 300 300 300 301 301 302 302 302 302 302 302 302 302 303 303 303 304 304 304 304 305 305 305 306 306 305
334 333 333 333 332 332 331 331 330 330 329 327 325 322 320 317 316 319 321 322 323 320 312 309 307 308 315 320 323 325 325 323 321 319 317 316 317 315 310 306 304 303 302 301 302 302 302 302 303 303 302 303 302 300 300 300 300 301 301 301 300 301 302 302 303 302 303 303 302 303 304 304 304 304 304 303 303 302 303 304 304 305 305 306 306
333 332 332 331 331 330 331 330 330 329 327 326 324 321 317 315 314 313 312 314 317 318 313 307 304 303 305 308 312 317 322 323 320 317 316 318 317 313 311 309 309 308 305 302 303 304 304 304 304 303 302 302 302 301 301 301 301 301 301 300 300 301 302 303 303 303 303 303 302 302 303 304 304 304 304 303 303 302 302 302 303 303 304 305 305
331 331 331 331 330 330 330 330 329 328 326 324 321 318 315 313 312 311 310 309 310 310 308 305 303 303 302 303 304 307 313 316 316 314 313 315 315 311 310 310 310 311 307 303 304 304 305 304 304 303 302 302 301 301 301 301 301 301 300 300 300 302 303 303 303 303 303 302 302 302 302 303 304 305 304 304 304 303 303 303 303 303 304 304 304
331 331 331 330 330 329 329 329 328 327 325 323 319 316 313 311 310 309 307 305 304 303 303 303 303 303 302 302 302 302 303 305 308 310 310 311 312 310 310 310 310 311 308 305 305 304 304 304 303 303 302 301 302 301 300 300 301 301 300 300 301 302 303 303 303 303 303 302 302 302 302 302 303 304 303 303 303 303 303 302 303 303 304 303 303
331 331 330 330 329 329 328 327 326 325 323 321 317 313 311 310 308 305 303 302 302 302 302 302 302 302 302 302 302 302 302 302 303 307 309 311 313 311 310 310 310 310 308 306 305 303 303 303 303 303 301 301 302 301 300 300 301 301 301 300 301 302 303 303 303 303 303 303 303 302 302 302 302 302 302 302 302 302 302 302 303 303 303 303 303
331 331 330 330 329 328 327 325 324 322 321 318 315 311 309 308 305 303 302 302 302 302 302 302 301 302 302 302 302 301 301 302 302 303 307 311 315 313 310 309 310 310 308 306 304 303 302 303 303 302 301 301 301 300 300 301 301 302 301 300 301 302 303 303 303 303 303 303 303 303 303 302 302 302 301 301 301 302 302 302 302 302 302 302 302
331 330 329 328 327 327 326 324 323 321 319 315 312 309 307 304 303 302 302 302 302 302 302 302 302 302 301 301 301 301 301 301 301 301 303 308 313 314 312 310 309 308 308 306 304 303 302 303 303 301 301 301 300 300 300 301 302 302 301 300 301 302 303 303 303 303 303 303 303 303 303 302 302 301 301 301 300 301 301 301 301 301 301 301 301
330 329 328 327 327 326 325 322 321 318 315 312 309 307 304 302 302 302 301 301 301 301 302 302 301 301 301 301 301 301 300 300 300 300 300 303 308 311 312 312 309 307 308 306 304 303 302 302 303 301 301 301 300 300 301 301 302 302 300 300 301 302 303 302 302 303 303 303 303 303 302 301 301 301 301 300 300 300 300 300 301 301 300 300 300
329 328 327 327 327 326 324 321 318 314 311 309 307 304 303 302 301 301 301 301 301 301 301 301 301 301 301 301 301 301 300 300 299 299 299 300 304 308 310 311 309 307 308 307 304 302 302 303 302 301 301 301 300 301 301 301 302 301 299 300 301 302 302 301 302 303 303 303 303 302 301 301 301 301 300 300 300 300 300 300 300 300 300 300 300
328 328 327 327 327 326 323 318 314 311 309 307 305 303 302 301 301 301 301 301 301 301 301 300 301 301 300 300 300 300 299 299 299 299 299 299 300 304 306 308 308 307 308 308 305 301 302 303 302 301 302 301 300 301 301 301 301 300 299 300 301 301 300 300 301 302 302 302 301 301 301 301 301 300 300 300 300 300 300 300 299 299 299 299 299
328 328 327 327 327 324 319 315 312 310 308 306 303 302 301 300 300 301 301 301 300 300 300 300 300 300 301 300 300 299 299 298 299 298 298 298 298 298 300 302 304 306 307 307 306 302 301 302 302 302 301 301 301 301 301 301 300 299 298 300 301 300 299 300 300 300 300 300 300 300 300 300 300 300 300 300 300 300 300 299 299 299 298 299 299
327 327 327 327 325 320 315 313 311 308 306 304 302 301 300 300 300 300 300 300 300 300 300 300 300 300 300 299 299 298 298 298 298 298 298 298 298 298 297 297 300 303 305 306 306 304 301 301 302 303 302 301 301 301 301 301 300 298 298 299 300 299 299 300 300 300 300 301 300 300 299 299 300 300 300 300 300 300 300 299 299 299 298 298 298
327 327 327 326 323 317 313 311 309 307 305 302 301 300 300 300 300 300 300 300 300 300 300 300 300 300 299 299 298 298 298 298 298 298 298 298 299 299 299 298 297 300 303 304 304 303 302 302 302 303 303 301 301 302 301 300 299 298 298 299 300 299 299 300 300 300 301 301 301 300 299 300 300 301 300 300 300 300 300 299 299 299 298 298 298
327 327 326 325 321 315 311 309 307 305 303 301 300 300 300 300 299 300 300 300 300 300 300 300 300 300 299 298 298 298 298 299 299 299 300 300 300 300 300 300 298 298 300 301 302 302 302 302 302 303 304 302 301 302 301 300 298 298 298 298 299 299 299 300 300 301 301 301 301 300 300 300 300 300 300 300 300 300 300 299 299 299 298 298 298
327 327 326 323 318 313 310 308 305 303 301 300 300 299 299 299 299 299 299 299 300 299 299 299 299 299 299 298 299 298 299 301 302 302 302 302 302 301 301 300 298 297 299 299 300 301 301 302 302 303 304 302 301 302 301 300 298 298 298 298 298 299 300 300 301 301 301 302 301 300 299 300 300 301 300 300 300 300 300 299 299 299 298 298 298
327 327 324 320 315 311 308 306 303 300 300 299 299 299 299 299 299 299 299 299 299 299 299 299 299 299 298 298 298 299 300 302 303 303 303 302 302 302 300 299 297 298 298 299 300 301 301 301 302 303 303 302 302 301 301 300 298 297 298 298 298 299 299 300 300 301 301 301 301 300 300 300 301 300 300 300 300 300 299 299 299 299 298 298 298
326 324 322 317 313 309 306 304 301 300 299 299 299 299 299 299 299 299 299 299 299 299 299 299 299 298 298 297 298 299 299 300 301 301 301 301 300 300 300 299 298 298 298 300 301 301 301 301 302 304 303 302 302 300 300 299 298 297 297 298 298 298 299 299 300 300 301 301 301 300 300 300 300 300 300 300 300 300 300 299 299 299 298 298 298
324 322 319 314 310 307 305 302 300 299 299 299 299 299 298 298 299 299 299 299 298 298 298 298 298 298 297 297 297 298 298 299 299 299 300 300 299 298 298 298 298 298 298 300 301 302 302 302 303 303 303 302 301 299 299 298 297 297 297 298 298 298 298 299 300 301 301 301 301 300 300 300 300 300 300 300 300 300 299 299 299 299 298 298 298
322 321 317 312 308 306 304 301 299 299 299 299 299 298 298 298 299 299 299 298 298 298 298 298 298 298 299 299 298 299 299 299 299 299 300 299 298 297 298 298 298 298 298 299 300 301 302 302 303 303 302 301 300 298 298 298 297 297 297 297 298 299 299 299 300 301 301 301 300 300 300 300 299 300 300 300 300 299 299 299 299 298 298 298 297
321 319 314 310 308 305 303 301 299 299 298 298 298 298 298 298 298 299 298 298 298 298 298 298 298 299 300 299 298 298 298 298 298 297 298 298 297 297 297 298 298 298 298 298 299 301 301 302 303 302 301 300 299 297 297 297 296 296 297 297 298 298 299 300 300 300 301 301 300 300 300 299 299 299 300 300 300 299 299 299 298 298 298 297 297
321 318 313 310 308 305 303 300 299 299 298 298 298 298 298 298 298 298 298 298 299 298 298 298 299 299 299 298 297 297 297 296 296 296 297 297 297 297 297 297 298 298 298 298 298 299 300 302 303 302 300 299 298 297 296 296 296 296 296 297 298 298 299 300 301 301 301 301 300 301 299 298 298 299 300 300 300 299 299 299 298 298 297 297 296
320 316 313 310 308 305 303 301 299 299 298 298 298 298 298 298 298 298 298 299 298 298 298 298 299 299 298 296 297 296 296 296 296 296 297 297 297 297 297 297 298 298 298 297 297 297 298 300 302 300 299 299 297 296 296 296 296 297 296 297 297 298 299 300 300 301 301 300 300 300 299 297 298 299 299 299 299 299 299 299 298 297 297 296 296
318 315 312 310 307 305 304 302 300 299 298 298 298 298 298 298 298 298 298 298 298 298 298 299 298 298 297 296 296 296 295 295 296 296 297 297 297 297 297 297 297 297 297 297 297 297 297 298 299 299 298 298 296 296 296 296 296 296 296 297 297 298 299 300 300 300 301 300 301 300 298 297 299 299 298 299 299 299 299 298 297 297 296 296 296
318 315 312 310 307 306 305 303 302 300 299 299 299 299 298 298 298 298 298 298 297 298 298 299 298 298 297 296 296 295 295 295 296 296 297 296 297 297 297 297 297 297 297 297 297 297 297 297 297 298 297 297 296 296 296 296 296 296 296 297 297 298 299 300 300 300 301 301 301 300 299 298 299 299 299 298 298 298 299 298 298 297 296 297 297
318 315 311 309 307 306 305 303 302 301 300 300 300 299 298 298 297 298 298 297 297 298 298 299 298 297 296 295 295 295 295 295 296 296 297 297 297 297 297 297 297 297 297 297 297 297 297 297 297 297 297 296 296 297 297 296 296 296 296 297 297 298 299 299 300 300 301 301 301 300 298 298 299 299 299 298 297 298 298 298 298 297 297 297 298
317 314 311 309 308 307 305 303 302 301 300 300 300 299 298 297 297 298 297 297 297 298 299 299 299 297 295 295 295 295 295 295 296 297 297 297 297 296 296 296 297 297 297 297 297 296 297 297 297 296 296 297 297 297 297 297 297 297 297 297 298 298 299 299 300 300 301 300 301 300 298 297 298 299 298 298 297 297 298 298 298 298 297 297 297
316 313 311 309 308 307 305 304 302 301 300 299 299 298 298 298 298 298 298 297 297 298 299 299 299 297 296 295 295 295 295 296 296 297 297 297 296 296 297 296 297 298 297 297 296 296 297 297 296 296 297 297 297 297 298 298 298 298 297 298 298 299 299 299 299 300 300 300 301 300 298 298 298 298 298 298 297 297 298 298 298 298 297 297 297
315 312 311 309 309 307 306 304 303 301 299 299 299 298 298 298 297 297 297 296 297 298 300 301 301 299 297 295 295 296 295 296 297 297 297 297 297 297 297 297 298 299 299 298 296 296 296 296 296 296 297 298 299 299 299 299 299 299 298 299 299 300 300 300 299 300 300 300 301 300 299 299 299 299 299 298 297 297 297 297 297 298 298 297 297
313 312 311 310 309 308 306 305 303 301 299 298 298 298 298 297 297 297 296 297 298 300 301 303 304 302 300 299 300 299 297 296 296 297 296 296 297 297 298 299 300 301 301 299 297 296 296 296 296 297 298 299 300 300 300 299 299 299 299 299 300 300 300 299 299 299 299 300 301 300 299 299 299 299 299 297 297 297 296 296 297 297 297 298 298
313 312 311 310 309 308 307 305 304 301 299 298 298 298 297 297 296 297 297 298 300 301 301 302 304 303 302 303 303 302 299 296 296 296 296 296 296 297 298 300 301 302 302 299 297 296 296 296 297 298 300 301 300 300 300 299 299 299 299 299 300 300 300 300 300 299 299 300 300 299 299 299 299 299 299 297 297 297 296 296 296 296 297 298 298
313 312 311 310 310 309 308 306 304 301 299 298 297 297 297 296 296 297 298 300 301 301 300 300 301 301 300 300 302 302 299 296 296 296 296 296 296 296 298 300 302 302 301 298 296 296 296 296 298 300 301 301 300 300 300 300 300 299 299 299 300 300 300 300 300 300 299 299 300 299 299 300 300 299 299 298 297 298 297 296 296 296 296 298 299
312 312 311 310 310 309 308 307 304 301 299 298 297 297 296 296 296 296 299 301 301 300 299 298 299 300 298 297 299 300 298 296 296 296 296 296 296 296 298 300 302 301 299 297 296 296 296 297 299 300 300 300 300 300 300 300 300 300 299 299 299 299 299 300 300 300 300 299 299 299 299 300 300 299 299 298 298 298 297 296 296 296 296 297 299
312 311 311 311 310 310 308 306 303 300 299 298 297 297 296 296 296 296 298 302 303 302 300 297 299 302 300 296 297 298 297 296 296 296 296 296 296 296 297 298 299 298 297 296 296 296 297 298 300 301 300 300 300 300 300 300 300 300 299 299 299 299 299 299 300 300 300 299 299 299 299 300 300 300 299 299 299 298 297 296 296 296 295 295 298
Wind_Speed
8 8 9 6 3 1 1 2 4 5 6 7 8 9 10 8 9 8 6 5 4 1 1 1 2 2 2 0 2 3 4 3 5 6 6 5 5 4 5 7 8 8 8 8 8 8 9 9 10 11 11 12 13 13 14 16 17 18 18 17 17 17 17 17 16 17 18 18 18 19 18 16 14 13 14 15 16 17 19 20 20 18 17 16 16
8 8 11 11 9 9 9 9 9 10 11 12 11 11 9 8 8 7 4 3 2 1 1 1 2 2 2 1 3 1 3 3 5 6 6 6 6 6 7 8 8 8 8 8 8 7 8 9 11 12 13 13 14 15 17 19 20 20 21 21 21 20 20 20 19 18 18 18 18 19 19 17 15 14 13 15 15 16 18 19 20 19 17 16 16
8 11 12 9 7 9 10 8 8 8 10 10 8 8 8 7 6 3 3 3 3 2 2 2 2 2 2 2 3 2 1 4 6 7 8 8 8 9 11 12 11 9 8 8 7 7 8 10 12 13 14 15 16 17 19 20 22 22 23 24 24 23 23 24 22 19 19 20 20 21 21 20 19 17 15 15 15 17 17 17 19 19 19 19 17
9 10 4 1 1 4 7 6 7 8 8 8 7 6 8 8 4 2 3 4 3 2 2 2 2 2 2 2 4 4 4 6 7 8 10 11 11 12 14 14 12 11 11 10 8 8 10 12 14 15 16 17 17 18 19 21 22 23 24 25 25 24 24 24 24 21 20 21 21 22 23 22 22 21 20 18 18 18 19 18 18 18 20 22 20
7 5 3 2 2 2 4 5 5 7 7 7 6 6 7 6 2 3 3 2 2 2 3 3 2 2 3 3 5 6 6 7 7 8 8 8 10 11 12 13 14 13 15 14 11 11 13 15 16 16 17 17 18 18 18 20 22 23 23 24 24 24 23 24 25 24 23 22 21 22 24 23 21 22 23 23 22 22 21 20 20 19 19 22 22
4 2 2 1 2 1 4 5 5 6 6 6 7 6 5 3 3 3 3 2 1 2 3 4 2 1 4 5 5 7 7 7 8 7 5 3 4 5 6 8 12 15 17 18 16 16 16 16 16 16 17 16 16 16 17 18 20 21 21 22 22 22 22 23 23 24 24 23 22 22 23 23 21 22 23 24 26 26 24 21 20 21 20 21 21
1 1 3 2 1 2 4 5 6 5 5 6 8 5 4 5 3 0 4 3 1 1 1 3 4 3 4 6 7 7 5 5 6 5 2 2 4 6 3 3 10 13 15 18 20 20 18 17 16 15 15 16 16 16 17 18 19 20 20 21 22 22 22 22 22 23 23 24 23 23 24 24 22 22 23 24 25 25 25 23 20 20 21 21 20
2 2 2 2 3 1 2 4 5 5 4 5 6 5 4 6 4 1 4 4 2 2 1 3 3 5 5 5 7 6 5 5 3 4 4 4 3 3 4 6 10 11 11 13 15 16 17 16 16 15 15 16 17 17 18 18 19 19 20 21 21 22 22 22 23 23 23 24 24 24 25 25 24 24 23 23 23 24 24 25 23 21 21 21 21
4 3 3 3 4 3 3 3 5 5 6 6 7 5 4 6 4 1 6 6 4 4 2 3 3 8 8 6 6 6 6 4 4 6 4 3 5 6 7 9 10 11 10 10 11 12 13 14 15 16 16 15 16 16 16 16 17 18 19 21 22 23 24 24 25 25 25 25 25 26 26 26 26 25 24 23 23 24 24 25 25 24 23 22 23
5 4 4 3 3 4 4 5 6 6 6 8 7 5 4 6 3 1 3 5 7 7 3 1 3 8 9 8 6 6 6 5 7 6 3 3 5 7 10 11 10 9 9 10 11 11 12 13 14 15 16 15 15 16 16 16 18 19 20 21 22 23 24 24 25 26 26 27 27 27 27 27 28 27 27 25 23 24 24 25 26 25 25 23 24
4 3 2 1 3 4 5 7 8 7 7 8 6 5 5 6 5 2 2 1 5 9 6 3 4 7 6 6 5 5 4 5 7 6 3 4 6 7 9 11 11 9 9 9 10 11 12 12 13 13 14 15 16 17 18 19 21 22 21 21 22 22 23 24 25 26 26 27 28 29 29 28 29 29 29 28 26 24 23 25 27 26 25 24 24
3 4 3 3 5 6 8 8 7 8 8 7 6 6 5 5 6 5 6 2 5 8 10 7 7 7 4 4 5 4 4 5 7 6 5 6 7 7 7 9 10 10 10 10 11 12 12 12 12 13 14 14 15 17 18 20 22 23 22 22 23 23 24 25 25 25 26 27 27 28 28 29 30 30 30 30 28 26 24 24 26 27 26 25 24
3 5 5 5 7 8 9 9 8 9 9 8 8 8 7 5 5 4 7 7 7 8 12 10 8 7 6 5 5 4 3 3 3 4 6 7 7 7 8 8 9 10 11 11 12 12 12 13 14 15 15 15 16 17 17 19 22 23 24 24 24 25 25 26 25 25 26 26 27 28 28 28 30 31 31 30 29 28 25 24 25 25 27 26 25
5 6 6 7 8 8 9 9 8 9 9 8 8 10 9 6 5 5 3 4 5 8 13 13 9 9 8 6 5 4 2 2 2 4 6 7 9 9 9 9 9 10 10 11 11 12 13 14 15 15 16 17 18 19 19 20 23 24 25 26 27 28 28 28 27 26 26 26 27 28 29 29 30 30 29 29 29 28 26 25 25 24 25 26 26
6 7 8 8 9 9 9 10 9 8 8 8 8 10 9 7 8 7 2 2 3 7 14 15 12 10 11 7 6 4 2 1 0 2 4 7 10 11 11 10 9 9 10 11 11 12 13 15 15 16 18 20 20 22 22 22 24 26 27 28 30 31 31 31 29 28 27 27 27 27 28 29 29 30 29 29 28 28 28 28 26 24 24 24 25
7 8 8 9 10 10 9 10 10 9 9 9 9 9 7 7 10 10 5 4 6 5 11 15 12 12 12 7 6 6 3 2 1 1 3 6 8 11 11 9 9 9 10 12 13 13 14 16 16 16 19 22 23 24 24 23 24 25 27 29 32 32 31 30 29 28 27 27 27 27 27 28 28 29 30 28 27 27 29 28 26 24 24 23 23
8 8 8 10 11 10 10 11 11 11 10 11 9 8 7 9 13 14 10 9 9 7 10 14 12 13 12 7 6 6 4 3 2 2 4 7 7 9 10 10 11 11 11 12 14 16 16 18 18 19 20 23 25 25 25 24 24 25 27 30 33 32 29 27 27 27 27 27 26 27 28 28 27 28 28 27 26 26 28 28 26 24 24 23 22
10 10 9 10 12 12 11 11 11 11 11 10 8 9 9 9 12 16 15 10 7 6 9 11 11 12 11 7 5 6 6 5 3 1 2 5 7 8 9 10 12 14 13 10 12 17 19 20 20 21 21 21 23 25 24 24 24 25 26 29 34 34 31 30 30 31 32 32 31 29 29 28 26 26 26 25 25 25 25 26 26 25 24 24 23
12 12 11 10 11 11 10 10 9 10 10 9 8 10 9 8 9 13 15 11 8 7 8 7 6 7 8 7 5 5 7 7 4 2 1 2 5 7 10 10 11 15 18 13 11 16 20 22 21 21 22 21 22 24 24 24 24 24 25 29 34 34 34 34 34 36 37 38 37 33 29 28 26 26 27 27 28 27 26 27 28 27 25 24 24
13 12 12 10 9 9 9 10 10 9 9 9 8 8 7 7 8 9 10 10 9 9 8 7 7 7 6 6 7 7 9 10 7 4 2 2 2 5 9 11 9 12 19 17 13 17 20 21 20 20 21 20 21 22 22 23 23 24 26 31 35 34 34 34 34 37 39 38 37 34 31 29 27 27 28 28 28 28 28 29 29 28 26 25 25
13 11 10 9 9 10 11 11 10 8 7 7 7 6 6 7 8 8 8 8 8 7 7 7 7 9 9 9 9 9 10 9 8 6 3 3 3 5 8 10 11 10 16 17 15 17 16 16 18 18 19 19 19 20 21 21 22 24 28 33 34 33 32 32 33 36 36 35 36 36 36 34 29 27 28 29 28 28 28 28 29 28 26 26 26
12 11 10 10 10 11 11 10 8 7 6 7 7 7 7 8 7 7 8 8 7 6 6 6 7 8 8 9 8 8 8 8 7 7 4 6 5 4 5 7 10 9 12 15 15 15 12 14 15 15 17 19 18 19 21 22 22 25 30 34 33 31 31 31 34 34 33 34 36 37 38 37 33 31 32 32 31 31 31 29 28 26 27 27 26
13 12 11 10 11 11 10 8 7 7 7 7 7 8 8 8 8 8 8 8 8 8 8 8 7 7 7 7 6 6 7 7 7 7 6 7 6 4 3 4 5 7 10 13 13 12 11 12 12 12 17 18 17 19 22 23 24 26 31 33 31 30 30 31 32 31 30 34 36 37 38 37 37 38 39 38 36 32 30 29 27 27 27 27 27
13 11 10 10 11 11 8 7 7 8 8 8 8 9 8 8 8 8 8 9 10 10 9 10 9 8 8 7 6 6 6 6 6 6 7 8 7 5 2 2 2 4 7 11 11 8 10 10 9 12 16 17 18 21 23 24 25 27 30 32 30 29 30 31 30 27 29 33 35 36 38 38 40 41 42 42 38 31 27 27 28 28 27 26 26
12 10 10 11 11 10 8 8 10 10 10 9 9 8 7 8 8 9 10 10 10 10 9 10 9 9 8 8 8 7 6 6 6 6 7 8 8 7 5 2 4 2 4 8 8 7 10 10 9 13 16 18 20 22 24 26 26 27 31 31 29 28 29 31 28 25 28 32 34 37 39 40 41 42 42 43 39 30 28 29 28 28 27 26 26
11 10 10 10 11 9 9 11 11 10 10 9 8 8 8 9 10 11 11 11 11 10 10 9 9 8 8 8 8 8 7 7 7 6 6 6 8 7 7 5 3 3 4 5 7 9 11 10 8 12 16 18 20 23 25 26 25 28 31 30 28 27 29 31 25 24 28 31 34 37 39 40 42 43 43 42 39 33 31 30 28 27 27 26 27
11 10 9 10 12 10 9 11 10 9 9 8 8 8 9 10 11 11 12 12 12 11 10 9 9 9 8 8 8 8 8 8 7 8 7 7 7 7 7 8 5 4 4 3 6 8 10 9 8 12 16 18 21 23 25 26 25 28 30 29 28 27 30 30 24 23 28 30 34 37 39 41 43 44 44 41 39 37 34 32 30 28 27 26 27
12 10 8 10 12 11 9 10 10 9 9 8 9 10 10 11 12 13 13 13 12 11 10 10 9 9 9 8 8 8 8 8 8 9 9 9 9 8 6 7 7 5 4 4 7 9 10 10 9 12 17 19 21 23 25 26 26 29 29 28 28 28 29 28 25 24 27 30 34 37 40 42 43 44 42 38 37 37 36 36 34 32 30 28 26
11 8 7 8 8 8 10 11 10 10 9 10 11 12 12 13 14 14 14 13 13 12 11 10 10 9 9 9 9 10 9 9 9 10 11 12 11 11 8 6 7 6 5 5 6 9 10 11 11 14 18 20 21 23 25 25 26 29 29 28 27 28 28 27 26 27 29 31 35 38 42 44 43 42 39 36 36 37 37 37 35 34 33 29 26
10 7 6 6 6 8 12 12 11 11 11 12 12 13 14 15 15 14 14 13 12 11 11 11 10 9 9 10 10 10 10 10 10 10 12 14 12 12 11 8 7 8 6 5 4 8 11 12 12 15 18 21 22 22 24 25 27 29 30 29 28 28 28 27 27 29 30 32 36 40 43 44 42 40 38 38 39 38 36 34 33 32 34 33 29
10 7 6 7 9 12 13 13 13 13 13 13 14 15 15 15 15 15 14 13 12 12 12 11 11 10 11 11 11 11 11 11 12 11 11 13 12 11 11 9 8 8 7 5 3 6 10 12 14 15 17 20 22 22 23 25 27 29 30 29 28 28 28 27 28 30 30 31 35 40 44 44 43 42 42 41 41 38 35 33 32 33 34 33 31
9 7 7 9 12 15 15 14 14 13 14 15 15 16 16 16 16 15 14 13 12 12 12 12 11 10 10 12 13 13 13 11 12 13 11 10 10 10 9 8 8 8 8 7 5 6 8 11 14 15 17 20 21 21 23 25 27 29 29 29 29 29 29 28 29 30 30 31 34 40 44 45 44 45 44 44 43 39 36 34 34 34 33 31 29
9 9 8 9 13 15 15 15 14 14 14 16 17 17 17 17 17 16 15 14 13 13 13 12 12 12 11 12 12 12 13 12 9 10 9 7 6 7 8 7 7 7 8 8 8 9 10 11 14 15 16 18 21 21 22 25 28 29 29 30 29 29 29 30 30 30 30 31 34 40 45 45 44 45 46 45 44 39 35 33 32 32 31 30 29
11 9 8 11 15 16 16 15 15 15 16 17 19 19 19 18 18 17 16 15 14 13 13 12 12 12 12 12 11 11 12 11 9 8 9 6 3 4 6 6 7 7 7 9 10 11 12 13 15 15 16 18 20 21 22 25 28 30 30 30 29 29 29 30 31 30 30 30 32 39 43 43 43 45 46 45 42 39 36 33 32 31 29 30 31
11 8 9 13 16 16 16 16 16 16 17 19 20 20 20 19 19 18 17 15 14 13 13 12 12 12 12 11 11 11 11 10 10 10 10 7 6 7 8 6 6 6 7 10 10 11 12 14 15 16 17 19 20 21 22 24 27 30 30 30 29 29 30 30 30 30 30 30 32 37 41 41 41 44 45 43 41 40 38 34 32 31 30 32 34
10 9 11 14 16 17 17 16 17 17 19 21 21 21 20 20 19 18 17 15 14 14 13 13 13 12 12 11 11 11 12 11 9 10 10 7 5 7 8 7 6 5 7 9 9 10 12 14 15 15 17 18 19 21 22 24 27 29 29 30 29 29 30 31 31 31 30 30 33 37 39 38 40 43 43 41 40 40 38 34 31 32 33 36 38
11 11 13 16 17 18 17 17 18 19 21 22 21 21 21 20 19 18 17 16 16 15 15 14 13 12 11 11 11 10 11 11 10 10 11 9 8 7 6 7 6 5 7 8 8 9 11 13 14 15 16 17 19 22 23 25 28 29 29 30 30 30 31 31 32 32 30 32 35 37 38 39 40 42 42 40 39 39 39 36 33 34 36 38 39
12 12 15 17 18 18 17 17 18 20 21 22 21 21 21 21 19 18 18 18 17 16 15 15 14 13 12 11 11 11 11 11 11 10 11 10 10 8 6 6 6 6 7 8 7 7 8 9 11 14 15 16 19 22 23 25 28 30 31 32 31 31 31 31 33 33 31 33 36 36 38 40 39 40 43 42 40 40 40 39 37 37 38 39 40
12 13 17 19 19 18 18 18 19 20 22 22 22 23 22 21 20 19 19 18 17 16 15 15 14 13 13 13 12 11 10 10 9 8 8 8 9 8 6 5 5 6 7 8 7 7 7 7 9 13 14 16 19 21 23 25 27 29 31 33 33 33 33 32 32 33 33 36 37 36 38 40 38 40 44 44 42 40 40 41 41 41 41 40 41
12 14 18 19 19 18 18 19 19 21 22 23 23 23 23 23 21 20 19 18 17 17 16 15 14 13 13 12 10 9 9 9 9 8 7 7 7 6 5 4 5 6 7 8 8 8 8 7 8 12 14 16 19 21 24 26 29 30 31 33 34 34 34 33 33 33 35 38 38 37 40 41 38 39 43 44 43 42 40 41 43 43 41 41 42
13 15 19 20 19 19 19 19 20 21 23 23 23 24 24 23 22 20 19 18 17 17 17 15 15 14 12 10 9 9 9 9 9 8 8 6 5 5 4 4 5 6 7 8 9 10 10 9 8 11 14 16 19 22 24 27 29 30 31 32 33 33 33 34 33 32 34 38 38 38 42 41 37 37 42 45 47 45 42 43 46 45 42 41 41
14 17 19 20 20 21 21 21 21 22 23 23 23 23 23 23 22 20 19 18 17 17 16 16 15 14 12 11 11 10 10 10 9 8 8 7 5 4 3 3 4 6 7 8 9 11 12 11 10 11 14 16 18 21 24 26 27 29 31 32 33 33 33 34 35 33 33 35 37 39 43 41 36 37 41 45 48 47 44 45 49 50 47 44 42
15 18 21 21 21 21 22 22 23 23 24 24 24 24 24 23 22 21 19 18 17 17 16 16 15 13 12 12 12 11 10 10 10 9 8 6 5 4 3 3 4 5 7 9 10 11 12 13 12 12 13 16 18 21 24 26 28 29 31 32 32 33 34 35 36 35 33 34 36 40 44 41 37 37 40 44 48 48 45 46 50 53 51 48 44
17 20 22 22 21 22 22 23 24 25 26 26 26 26 25 24 23 22 19 18 18 17 15 14 14 13 13 13 12 11 10 10 10 9 8 6 5 3 2 2 3 5 7 8 10 11 12 13 13 13 13 17 20 21 24 27 29 30 31 30 30 32 33 34 35 34 33 32 33 39 44 43 39 38 40 43 47 47 46 47 51 55 55 52 47
19 22 23 22 22 23 23 23 24 26 27 27 27 27 26 24 23 21 20 20 20 17 15 13 12 12 13 13 12 11 10 10 10 9 7 6 5 4 2 1 3 6 8 10 11 12 12 13 13 13 14 18 21 22 23 26 29 30 30 30 29 30 32 33 32 31 31 31 31 36 43 43 40 39 40 42 45 45 45 47 51 55 55 53 49
22 24 24 24 24 23 23 24 25 27 27 27 28 27 25 24 23 22 21 21 20 17 15 12 11 12 12 11 11 10 11 10 8 7 5 4 3 2 0 3 5 7 9 10 11 12 12 13 13 14 16 18 21 22 22 24 26 27 29 30 29 30 31 31 30 29 29 29 28 34 41 43 41 39 40 42 44 43 45 48 50 54 56 54 50
23 25 25 25 24 24 24 25 26 27 27 26 27 26 25 23 23 23 22 21 18 17 16 15 14 12 11 9 8 9 10 9 7 6 4 3 3 2 2 4 6 8 10 12 12 13 13 13 13 15 17 18 20 21 21 22 23 24 27 27 27 28 29 29 29 29 29 27 26 33 41 42 40 40 41 43 43 41 44 48 49 52 56 56 53
22 24 25 25 25 24 25 26 28 27 26 26 26 26 25 23 23 24 22 21 19 19 19 19 17 16 14 12 10 11 11 9 7 7 5 4 4 3 1 2 3 5 8 11 11 11 11 12 12 13 16 18 19 19 20 20 22 24 25 25 26 27 28 29 29 31 31 27 26 33 40 40 39 39 41 44 42 40 44 48 48 51 56 57 55
22 23 24 25 25 25 26 29 29 27 25 25 26 26 26 25 25 25 23 21 20 19 19 19 18 16 17 16 14 14 12 9 8 8 6 5 6 4 2 1 2 3 8 10 10 9 11 11 11 13 16 17 17 18 19 20 22 24 25 25 26 27 28 29 29 31 32 29 27 33 38 38 37 37 40 44 42 39 43 48 48 50 55 56 55
22 22 23 24 25 26 28 31 29 26 25 25 26 27 27 26 27 27 23 19 17 16 17 18 16 14 17 17 16 14 12 10 10 9 7 7 7 6 4 3 4 6 8 9 9 10 12 11 11 14 16 16 16 17 18 19 21 23 24 24 25 26 28 29 28 30 32 30 29 34 37 36 37 37 38 42 41 40 43 47 48 49 54 56 55
22 22 23 24 25 27 29 30 28 25 24 26 26 26 27 27 27 27 23 17 13 13 14 15 15 14 16 17 17 16 12 9 9 9 8 8 8 7 6 6 6 8 8 8 9 10 10 10 12 14 14 14 15 16 16 18 19 21 22 22 23 25 26 27 28 29 31 31 31 34 35 34 36 38 39 40 40 40 44 48 47 47 51 54 54
Wind_Direction
209 178 179 204 216 250 264 255 258 230 226 247 228 222 242 230 214 211 207 223 214 191 232 311 339 47 87 356 57 11 328 7 346 344 6 8 7 5 2 355 351 352 351 355 353 352 351 345 345 343 340 340 340 341 334 325 323 322 321 321 320 318 316 314 316 316 318 322 324 323 322 324 323 321 319 309 305 303 300 303 305 306 305 300 297
203 200 190 191 191 196 200 206 222 218 210 222 221 214 224 222 209 201 191 199 166 83 95 102 4 40 72 30 75 35 320 18 9 3 20 21 16 10 4 356 353 355 350 347 346 347 345 341 340 335 332 331 330 329 325 322 321 320 320 320 321 321 317 316 317 316 314 314 314 313 314 319 320 321 322 311 306 304 301 302 299 297 301 301 297
205 220 210 198 191 192 196 208 220 220 217 217 218 219 228 230 211 189 177 148 142 130 89 84 57 59 56 76 102 60 25 64 39 22 24 22 15 11 5 356 351 355 353 345 340 342 345 340 336 331 329 327 325 323 320 319 317 317 318 319 321 322 320 319 320 319 315 312 312 310 310 312 313 316 322 317 312 305 299 298 297 297 299 297 295
221 232 215 123 203 194 193 207 215 221 227 219 218 220 222 230 215 186 191 138 133 129 92 75 73 108 84 89 123 96 85 93 74 45 31 24 18 13 5 353 345 346 342 341 342 344 345 338 333 328 325 323 320 318 315 313 312 313 315 316 318 319 320 319 319 319 316 313 313 311 309 309 311 313 315 314 312 308 301 293 291 297 299 292 288
246 270 21 58 166 172 199 212 213 222 228 225 233 222 213 234 220 157 167 112 100 104 97 82 67 132 120 113 133 113 92 87 87 75 61 48 36 26 11 350 336 335 332 336 346 348 343 334 330 328 324 323 319 318 315 312 313 314 316 316 316 317 318 317 316 316 315 314 312 309 307 308 309 307 306 307 307 307 307 305 296 291 290 288 287
267 309 275 236 151 169 227 227 216 220 228 227 234 218 185 210 227 146 117 75 56 83 106 130 122 166 143 125 114 107 101 95 97 98 107 136 117 90 49 355 323 327 330 333 340 343 343 337 334 334 330 329 327 328 327 323 323 323 324 323 321 320 319 316 314 314 314 314 312 308 305 306 305 300 298 299 300 300 306 313 311 301 291 287 286
253 275 233 224 222 209 217 231 226 221 231 223 220 211 164 180 225 117 119 121 85 81 121 184 176 172 157 128 105 101 103 110 125 135 161 213 178 178 183 297 305 320 327 328 333 336 342 344 341 342 341 341 341 343 340 336 334 333 332 330 328 327 325 322 319 318 316 314 313 310 307 306 304 300 296 296 298 298 302 306 308 307 301 294 289
213 256 276 228 233 214 201 230 220 208 213 211 205 199 186 201 231 269 156 133 95 144 171 240 196 133 119 123 126 120 103 103 150 203 219 248 267 258 280 304 310 321 324 323 329 334 342 345 345 348 352 351 347 346 345 341 339 338 338 336 335 334 332 331 328 326 324 319 319 316 313 312 309 304 300 298 298 298 299 300 300 299 298 297 292
232 251 271 238 235 265 263 224 200 201 192 183 193 194 196 211 242 258 167 142 121 137 154 250 164 126 124 131 144 147 143 151 219 244 243 276 313 317 317 323 326 332 338 339 343 347 348 349 350 351 354 353 346 344 347 347 343 343 346 343 341 340 338 337 335 333 330 326 325 322 319 320 318 314 309 304 300 297 296 296 297 297 296 294 289
241 238 248 255 251 260 249 202 190 195 184 177 184 186 198 215 247 302 176 171 159 136 117 248 149 144 152 150 158 173 183 215 251 263 286 324 323 323 322 332 345 352 355 356 357 359 358 358 359 355 352 352 350 349 353 358 355 352 355 351 345 344 341 340 339 336 334 331 330 328 326 326 323 320 317 314 308 303 298 295 294 295 296 294 289
234 209 219 231 216 216 198 187 187 189 189 187 180 180 210 229 238 199 138 221 184 148 135 161 157 158 169 176 196 216 224 253 276 291 324 331 328 333 333 340 355 6 6 6 7 7 8 8 5 1 358 357 359 358 358 3 4 359 360 357 350 349 346 344 342 340 337 335 333 331 330 329 326 323 321 320 318 314 305 297 294 292 293 292 290
221 199 202 183 185 185 180 183 189 192 191 189 185 189 209 237 236 186 148 203 230 174 154 163 175 171 184 198 204 237 270 278 289 318 350 353 352 352 352 355 358 4 10 16 19 16 15 13 11 11 9 8 8 9 4 3 6 3 1 1 357 355 353 350 347 344 340 337 334 331 330 330 327 326 325 323 323 321 315 305 299 297 293 291 289
207 208 208 189 181 176 175 181 188 192 190 191 196 202 208 223 235 196 170 201 233 195 161 162 188 196 196 199 207 233 275 291 308 353 11 13 15 11 9 12 8 7 12 19 24 22 19 19 20 20 17 17 18 18 13 6 7 6 3 3 1 360 357 353 350 347 343 339 336 333 331 330 327 326 327 327 326 325 321 314 307 303 298 294 290
195 199 196 184 180 176 178 185 190 193 195 198 205 213 209 195 198 204 208 232 235 197 169 164 190 223 221 209 222 244 282 312 353 22 30 31 28 24 17 15 17 19 21 25 27 27 27 26 28 29 25 25 24 22 18 11 8 7 5 4 2 0 358 354 351 348 345 341 337 334 332 330 327 326 327 327 329 329 325 321 316 311 305 300 296
191 186 181 178 179 184 187 190 195 199 200 205 214 219 211 194 184 183 208 294 240 192 181 179 181 204 218 224 236 231 208 239 316 26 33 36 29 26 20 15 22 27 31 33 31 31 35 35 32 33 31 28 25 22 19 13 6 5 5 5 3 359 354 352 349 347 344 340 336 333 331 329 327 325 325 326 328 329 326 324 323 318 312 307 303
191 181 177 179 182 189 194 194 200 203 206 216 220 218 207 183 170 169 178 222 236 214 193 195 183 182 201 220 236 222 184 194 191 100 32 27 25 22 17 16 26 33 38 40 38 34 36 38 32 30 30 26 22 20 17 11 4 1 2 4 3 357 351 347 345 343 340 338 334 332 329 328 326 323 323 328 329 326 323 323 324 322 321 317 311
183 182 181 179 178 189 202 204 208 211 215 223 218 204 192 176 168 171 181 200 226 234 206 204 199 194 201 199 201 201 177 157 134 91 20 6 11 21 16 18 29 32 37 44 43 38 35 36 31 26 26 20 16 14 10 4 1 359 1 2 358 353 348 345 343 343 341 338 335 332 331 328 326 324 325 330 328 323 324 325 324 325 325 322 317
175 176 175 175 176 188 208 211 213 218 222 225 209 194 196 193 182 182 189 196 204 215 209 206 209 210 212 205 188 175 158 131 101 91 17 1 359 8 7 19 32 29 27 34 39 37 32 30 27 22 20 12 7 5 3 1 360 1 0 357 353 349 350 350 350 349 348 346 343 340 337 333 331 331 330 327 320 318 323 325 325 326 325 324 321
182 180 176 183 186 191 210 221 225 227 225 224 209 198 200 201 197 193 198 199 181 187 198 193 194 198 202 206 188 151 144 136 121 93 35 329 336 350 354 10 23 23 20 16 27 32 23 19 17 14 15 10 2 358 357 357 359 2 359 352 349 349 353 355 354 351 348 348 348 346 343 340 339 339 334 328 324 322 323 323 324 325 325 324 322
191 189 184 192 194 194 210 225 235 236 226 218 206 200 199 200 205 203 203 201 191 196 194 172 165 153 146 160 154 146 152 153 150 119 61 275 304 348 347 355 359 13 13 6 25 34 18 11 7 5 11 6 355 351 348 350 356 360 357 352 351 352 355 355 351 348 348 349 350 350 348 346 342 340 337 333 331 329 325 324 323 323 323 320 319
197 196 193 197 202 207 218 229 241 247 227 207 197 192 197 204 205 199 199 203 207 212 198 178 170 154 142 140 140 148 160 167 173 160 113 114 92 8 347 350 344 355 4 4 32 40 15 1 1 4 7 356 348 348 347 353 0 359 357 354 352 354 355 351 346 346 348 351 352 351 350 348 343 338 336 334 332 329 325 323 321 320 320 317 315
198 198 198 205 216 220 227 238 244 239 216 197 193 193 197 203 202 195 194 192 190 192 183 174 169 162 156 153 150 154 163 169 173 167 140 120 100 20 353 346 332 331 354 10 40 45 11 352 0 4 357 348 348 349 352 2 5 360 357 354 351 353 352 347 344 345 347 351 352 351 349 347 342 338 336 335 332 328 325 322 320 319 316 315 313
196 200 205 215 228 232 238 243 236 224 208 196 195 198 199 197 192 186 182 177 170 164 161 157 154 156 154 156 161 157 159 158 154 159 152 134 109 43 357 322 308 305 345 21 50 45 9 357 4 356 346 347 350 351 358 7 6 1 356 350 351 353 349 345 346 348 351 352 352 349 346 344 341 339 338 336 332 328 327 324 320 318 315 314 312
195 203 213 223 236 245 248 237 221 210 200 197 199 199 197 193 188 179 171 168 163 158 157 154 150 152 152 150 149 139 140 144 150 162 153 145 133 101 51 348 355 295 342 33 55 28 2 9 6 343 344 352 355 357 5 9 6 360 352 349 353 352 346 345 347 350 353 352 350 346 344 342 340 340 340 338 335 332 330 327 323 320 318 315 312
198 207 218 227 240 245 239 224 212 203 198 197 199 196 189 184 176 166 161 159 157 157 158 154 151 153 150 142 135 130 132 137 142 150 150 158 159 141 134 82 42 17 29 54 51 6 360 23 5 338 350 359 359 6 10 10 6 356 349 350 353 350 345 345 348 355 353 349 346 344 342 341 340 341 342 341 341 338 333 330 326 322 320 317 314
200 211 219 229 242 241 224 215 204 194 196 195 194 191 185 177 168 160 158 155 154 157 155 152 151 147 140 134 133 131 131 132 133 137 142 156 161 150 141 128 66 54 74 56 31 7 5 23 3 343 358 4 5 12 12 8 2 351 348 351 354 353 347 344 350 357 352 346 344 343 343 343 344 344 343 344 345 343 337 333 328 323 321 319 318
206 213 220 228 244 250 227 207 193 187 193 194 192 190 183 173 164 160 159 156 155 155 152 149 144 138 135 134 136 132 129 128 130 134 131 132 139 140 134 125 100 71 76 36 15 8 6 16 3 354 4 5 9 14 9 6 359 349 350 354 358 357 348 347 354 354 349 345 344 344 345 346 346 344 343 345 347 346 342 338 333 327 323 320 319
210 212 222 229 246 253 221 194 186 188 193 194 194 187 176 167 162 162 162 159 157 153 149 147 141 139 141 138 134 128 127 130 132 132 126 118 115 112 120 124 106 82 70 43 10 0 8 12 4 7 9 4 10 14 8 4 357 351 354 358 359 354 349 354 360 355 352 350 348 348 348 347 346 344 343 344 345 345 344 343 340 335 329 323 319
212 215 227 242 254 238 201 186 187 193 197 198 194 182 172 168 167 168 165 161 157 152 149 147 144 146 145 139 134 128 128 131 134 133 123 111 103 98 100 110 113 110 92 50 3 353 6 8 4 11 11 5 9 13 7 1 356 354 358 0 357 351 352 1 2 358 359 357 354 352 351 350 348 347 346 346 346 345 344 344 342 339 338 333 325
213 222 237 255 248 212 193 189 192 197 201 198 189 180 174 172 170 169 165 162 159 156 152 150 148 148 142 136 134 132 135 137 134 131 121 110 99 91 86 83 99 113 104 67 8 348 358 8 12 9 4 4 7 8 4 358 356 358 1 1 356 351 355 2 1 358 357 354 352 352 352 353 351 350 351 350 348 345 343 343 341 339 341 340 334
209 221 241 245 225 204 195 194 197 200 201 195 185 178 175 173 171 169 165 164 163 159 155 153 151 149 145 141 140 137 134 133 125 114 110 108 102 90 77 68 78 99 101 83 40 355 354 4 13 10 360 359 3 2 358 356 358 1 4 2 355 352 357 0 358 356 354 350 349 351 352 354 354 354 354 352 348 346 344 344 343 341 342 343 341
205 223 244 233 210 201 197 197 200 202 198 191 183 178 175 174 172 170 167 166 167 163 156 154 152 151 154 152 151 143 128 119 110 99 89 85 88 89 78 60 63 83 88 78 52 22 10 6 9 12 0 353 358 358 353 355 359 2 6 4 357 356 360 360 356 354 352 348 347 349 350 352 354 354 353 350 348 347 346 346 347 347 346 344 343
210 230 238 219 201 199 199 199 201 200 195 187 182 178 177 176 173 170 170 170 169 165 158 158 157 156 159 159 157 148 133 119 106 96 86 68 59 73 78 68 65 73 74 67 47 28 25 19 13 10 357 349 355 355 349 351 357 2 7 7 3 2 2 360 356 353 352 349 348 349 351 352 353 352 350 348 346 346 347 348 350 350 347 344 342
215 228 225 207 200 200 200 200 199 196 192 186 182 181 179 177 173 172 175 173 170 167 163 164 166 163 163 163 158 148 140 135 134 133 122 115 121 108 90 74 67 69 66 58 38 17 16 19 14 3 352 349 352 351 348 349 355 2 5 6 9 9 5 0 356 354 355 352 347 349 352 353 353 350 348 347 346 347 347 346 349 350 349 346 343
213 215 208 201 199 200 200 200 198 194 190 187 184 184 181 177 177 177 178 175 171 169 167 167 169 166 162 159 152 144 141 139 145 148 133 124 147 141 116 90 68 64 65 54 29 6 3 6 6 356 347 347 348 349 350 350 356 3 4 5 10 13 9 2 356 356 357 354 348 348 352 354 352 349 349 349 349 348 347 346 349 350 349 345 341
205 204 202 196 195 199 200 198 197 193 190 189 188 185 181 180 182 181 178 175 171 169 170 170 169 166 160 156 152 148 144 141 143 145 131 119 134 136 121 106 90 71 64 53 25 3 355 353 357 352 344 344 346 350 353 353 358 3 5 6 9 11 10 5 360 357 356 355 351 350 352 353 351 350 352 352 352 352 350 349 350 348 344 341 338
198 197 196 193 193 198 199 197 196 193 192 191 188 183 182 183 184 182 178 174 172 174 174 173 170 165 163 162 159 156 155 155 156 153 142 133 131 127 117 106 95 74 62 52 27 7 354 346 348 345 342 345 347 354 358 355 356 0 4 8 9 7 5 4 2 360 356 354 352 352 354 353 351 354 356 355 355 356 355 353 350 344 340 338 335
194 193 190 189 193 196 198 197 197 195 193 191 187 183 184 185 184 182 179 177 179 180 177 175 173 171 170 172 171 170 169 166 161 156 148 139 132 126 115 100 84 64 58 54 35 10 355 351 347 339 343 348 348 356 4 1 359 358 359 4 9 7 2 0 2 0 357 353 354 356 355 351 353 358 360 358 357 357 358 357 352 345 341 338 336
191 190 187 188 192 195 196 197 198 197 193 190 187 186 186 185 185 184 183 183 184 181 178 177 176 177 181 184 181 174 167 161 155 152 148 141 134 127 113 92 71 54 51 52 42 22 11 9 350 339 347 352 349 357 6 6 5 5 1 359 1 3 1 360 360 358 355 354 354 356 354 353 357 1 0 360 359 359 359 357 352 346 342 340 337
188 188 188 191 192 190 193 197 198 196 193 191 189 188 187 187 188 188 187 187 184 179 180 180 179 185 191 186 177 165 159 158 156 153 150 142 132 124 107 81 57 45 43 43 39 31 29 26 357 345 352 353 352 1 8 8 7 8 6 360 356 356 357 358 359 357 355 354 352 351 353 355 358 1 1 2 2 3 2 356 352 347 343 340 338
186 187 190 192 189 186 190 195 196 195 193 192 190 189 190 190 191 190 189 188 186 184 184 182 185 192 189 176 168 166 166 167 164 159 153 144 130 117 100 74 47 39 35 34 32 28 28 28 10 358 358 355 356 2 7 8 7 6 6 3 357 355 355 356 358 360 357 353 348 348 353 356 357 358 359 0 2 5 2 357 356 354 352 348 344
187 189 190 189 187 188 190 193 194 194 192 192 191 191 193 193 193 192 191 189 188 189 187 186 192 194 180 170 175 177 174 173 170 165 157 146 134 118 94 60 40 35 31 28 26 23 23 25 20 8 359 357 1 4 5 8 10 7 5 2 357 356 356 353 354 360 359 352 346 345 351 357 358 354 352 355 0 3 360 357 357 357 358 358 353
191 193 190 187 188 191 193 196 197 195 193 192 192 192 194 194 193 192 191 189 190 191 189 190 196 192 178 177 183 182 181 182 178 171 162 152 139 122 93 50 31 27 27 24 21 20 19 20 23 16 2 1 7 9 7 7 9 8 5 3 358 356 355 351 349 354 357 353 345 343 349 358 1 354 349 352 357 360 359 357 357 357 359 1 358
196 195 190 187 189 192 196 199 200 198 197 195 194 196 195 194 195 195 193 192 193 193 191 194 200 194 184 184 188 186 187 190 188 181 170 159 147 136 117 56 28 22 24 22 15 15 16 15 19 20 11 7 11 11 8 6 5 5 3 2 1 358 355 351 348 350 353 352 344 341 348 358 1 355 349 349 353 356 358 359 358 358 360 1 1
198 195 190 188 192 195 198 203 204 204 202 199 199 201 198 197 199 197 194 195 195 193 192 195 202 201 193 191 192 191 193 197 196 190 177 166 165 163 154 13 8 11 15 15 10 7 9 10 13 16 14 11 10 9 7 3 359 359 358 359 2 0 355 352 350 350 352 351 343 339 346 355 359 355 350 349 351 354 356 357 358 358 0 2 2
197 193 189 189 194 197 199 204 209 210 207 204 204 203 200 200 200 196 195 195 193 190 189 193 207 212 207 199 197 201 203 198 196 195 184 182 205 198 53 347 350 358 358 358 358 356 1 5 5 8 12 10 6 4 2 359 356 353 352 355 359 359 353 351 350 350 354 353 343 339 345 352 355 354 351 350 353 355 357 358 358 359 1 3 4
195 192 191 192 195 197 200 207 214 214 209 207 207 204 201 200 197 196 195 192 189 188 188 192 203 210 207 202 208 222 216 200 196 202 194 207 261 283 344 339 343 344 335 338 346 346 352 357 353 358 9 7 1 358 355 354 355 352 350 354 357 355 350 349 350 352 356 356 346 341 345 350 353 352 350 351 354 357 358 359 358 0 3 4 6
193 191 192 194 196 197 201 210 216 216 212 209 207 203 201 199 196 196 195 189 190 195 197 198 201 203 201 196 203 225 226 207 203 213 205 212 244 262 286 322 342 329 312 323 336 336 339 344 343 356 9 4 355 353 350 350 353 349 348 353 357 353 348 348 350 351 354 358 351 344 344 348 353 352 349 350 355 357 358 358 358 1 4 5 7
194 192 192 196 199 199 205 213 218 218 213 208 204 200 199 199 197 197 195 191 195 202 204 206 207 210 210 203 203 224 231 216 212 220 213 217 236 244 243 278 310 277 287 310 328 332 334 338 348 5 9 358 350 351 349 349 350 346 347 353 355 351 349 349 349 348 351 356 353 346 345 347 351 352 349 350 354 357 356 357 359 3 5 6 8
196 194 194 197 199 200 208 217 222 220 214 208 204 201 201 201 199 198 196 193 198 206 209 211 209 213 219 213 208 222 229 218 218 224 219 221 234 237 228 223 243 264 290 317 330 330 333 342 1 13 6 352 348 350 349 348 346 343 348 354 354 351 350 349 348 345 347 353 354 349 346 347 349 351 350 350 353 356 357 357 360 3 4 5 9
195 194 194 198 200 204 212 223 228 222 213 209 207 204 204 204 201 200 194 188 195 208 212 211 208 214 226 223 217 227 235 225 220 224 223 228 236 243 241 235 247 273 304 326 327 326 335 354 10 11 359 347 346 348 346 344 341 343 351 356 352 349 348 349 349 345 344 349 353 350 347 347 348 349 351 351 350 352 356 358 0 3 4 4 8